Terminal Aerodrome Forecast
Issued by NWS Atlanta, GA

Home | Current Version | Previous Version | Text Only | Print | Product List | Glossary On
Versions: 1 2 3 4 5 6 7 8 9 10 11 12 13 14 15 16 17 18 19 20
000
FTUS42 KFFC 192300
TAFMCN
TAF
KMCN 192320Z 2000/2024 08007KT P6SM BKN040
     FM200100 08003KT P6SM FEW060
     FM200900 07004KT 5SM BR OVC010
     FM201500 06010G17KT P6SM SCT035
     FM201900 06011G16KT P6SM SCT060=

USA.gov is the U.S. government's official web portal to all federal, state and local government web resources and services.